ZHUHAI-1 03E (44539 NORAD) Tracking and Keplerian Element Data

This shows tracking and keplerian element data for the satellite.

Feedback or suggestion? Click here.




ElementValue
Catalog44539
NameZHUHAI-1 03E
Epoch Orbit435
Epoch Day290.90808372
Epoch Year2019
RAAN41.0132
Inclination97.4062
Eccentricity0.0008306
Argument of Perigee226.1209
Mean Anonmoly293.3229
Mean Motion15.17711458
Decay Rate-1.78E-06
L11 44539U 19060F 19290.90808372 -.00000178 00000-0 -55217-5 0 9992
L22 44539 97.4062 41.0132 0008306 226.1209 293.3229 15.17711458 4357

Live tracking and technical data element details for ZHUHAI-1 03E (NORAD 44539). ZHUHAI-1 03E can be tracked NOW for your location showing map with azimuth and elevation plus other details from your city location.

Track the satellite on the map from your city or location and see movement details for azimuth, elevation, latitude, longitude, range, height, and movement on the map or in text.







IsCatalogInMostPopularTable: catalog: 44539, numindb: 14
Update: records affected: 1



GetName: 44539 ZHUHAI-1 03E

Hit Count: updated at: Thu, 12 Dec 2019 00:11:59 GMT